QPF
0.01 0.01 0.01 0.01 0.02 0.02 0.02 0.03 0.03 0.03 0.04 0.04 0.03 0.03 0.02 0.02 0.02 0.02 0.02 0.02 0.03 0.03 0.02 0.02 0.03 0.03 0.04 0.03 0.01 0.01 0.01 0.01 0.01 0.01 0.01 0.02 0.01 0.01 0.01 0.01 0.01 0.01 0.01
0.01 0.01 0.01 0.02 0.02 0.02 0.02 0.02 0.02 0.03 0.04 0.04 0.04 0.04 0.03 0.03 0.02 0.02 0.02 0.02 0.03 0.04 0.03 0.03 0.02 0.02 0.03 0.04 0.03 0.02 0.01 0.01 0.01 0.01 0.01 0.02 0.01 0.01 0.01 0.01 0.01 0.01 0.01
0.01 0.01 0.02 0.03 0.03 0.02 0.02 0.01 0.02 0.02 0.03 0.03 0.04 0.04 0.03 0.03 0.03 0.02 0.02 0.03 0.03 0.05 0.04 0.03 0.03 0.02 0.03 0.03 0.03 0.03 0.01 0.01 0.01 0.01 0.01 0.01 0.01 0.01 0.01 0.01 0.01 0.01 0.01
0.01 0.01 0.03 0.04 0.04 0.03 0.02 0.02 0.02 0.02 0.02 0.03 0.03 0.04 0.03 0.03 0.03 0.03 0.03 0.03 0.02 0.04 0.04 0.03 0.03 0.03 0.03 0.04 0.04 0.04 0.02 0.01 0.01 0.01 0.01 0.01 0.01 0.01 0.01 0.01 0.01 0.01 0.01
0.02 0.02 0.02 0.03 0.04 0.04 0.03 0.02 0.02 0.02 0.03 0.04 0.04 0.04 0.04 0.03 0.02 0.02 0.02 0.02 0.02 0.03 0.03 0.03 0.03 0.03 0.03 0.02 0.03 0.02 0.02 0.01 0.02 0.02 0.01 0.01 0.01 0.01 0.01 0.01 0.01 0.01 0.01
0.03 0.04 0.04 0.04 0.04 0.04 0.03 0.02 0.02 0.02 0.03 0.04 0.04 0.04 0.04 0.03 0.02 0.01 0.01 0.02 0.02 0.02 0.02 0.03 0.03 0.02 0.02 0.02 0.02 0.02 0.02 0.01 0.02 0.01 0.01 0.01 0.01 0.01 0.01 0.00 0.01 0.01 0.01
0.04 0.05 0.05 0.05 0.05 0.04 0.04 0.03 0.03 0.03 0.03 0.04 0.04 0.04 0.04 0.04 0.03 0.01 0.01 0.01 0.01 0.01 0.02 0.03 0.03 0.03 0.02 0.02 0.03 0.03 0.03 0.02 0.02 0.03 0.02 0.01 0.01 0.01 0.01 0.01 0.01 0.01 0.01
0.04 0.06 0.07 0.07 0.07 0.06 0.05 0.04 0.04 0.05 0.05 0.05 0.05 0.05 0.05 0.05 0.03 0.02 0.01 0.01 0.01 0.01 0.01 0.02 0.03 0.03 0.02 0.03 0.04 0.03 0.02 0.01 0.02 0.04 0.04 0.03 0.02 0.01 0.01 0.01 0.01 0.02 0.01
0.03 0.05 0.07 0.10 0.09 0.10 0.11 0.13 0.12 0.10 0.07 0.07 0.07 0.06 0.05 0.04 0.04 0.02 0.01 0.01 0.01 0.01 0.02 0.02 0.02 0.02 0.02 0.03 0.03 0.02 0.02 0.01 0.01 0.02 0.04 0.03 0.03 0.01 0.01 0.01 0.01 0.01 0.02
0.03 0.05 0.07 0.09 0.10 0.12 0.14 0.19 0.19 0.12 0.08 0.08 0.08 0.06 0.08 0.06 0.04 0.02 0.02 0.01 0.01 0.01 0.02 0.02 0.02 0.02 0.02 0.03 0.01 0.02 0.02 0.01 0.01 0.01 0.01 0.01 0.02 0.01 0.01 0.01 0.01 0.01 0.01
0.04 0.05 0.07 0.08 0.09 0.11 0.13 0.13 0.13 0.11 0.09 0.10 0.08 0.06 0.07 0.08 0.05 0.03 0.02 0.01 0.01 0.01 0.01 0.02 0.02 0.02 0.02 0.02 0.02 0.02 0.02 0.01 0.01 0.00 0.00 0.00 0.01 0.01 0.01 0.01 0.01 0.01 0.01
0.05 0.05 0.06 0.07 0.09 0.09 0.08 0.08 0.08 0.08 0.07 0.07 0.06 0.06 0.06 0.09 0.07 0.05 0.03 0.01 0.01 0.01 0.01 0.01 0.02 0.02 0.02 0.02 0.03 0.02 0.01 0.01 0.01 0.00 0.00 0.00 0.00 0.01 0.01 0.01 0.01 0.01 0.01
0.05 0.06 0.05 0.07 0.08 0.08 0.06 0.05 0.06 0.06 0.06 0.05 0.04 0.06 0.06 0.09 0.10 0.07 0.05 0.03 0.02 0.01 0.01 0.02 0.02 0.02 0.02 0.02 0.02 0.01 0.01 0.01 0.01 0.01 0.00 0.00 0.00 0.01 0.00 0.00 0.00 0.01 0.01
0.05 0.06 0.07 0.08 0.07 0.06 0.04 0.04 0.05 0.06 0.06 0.06 0.05 0.07 0.08 0.09 0.12 0.10 0.07 0.05 0.03 0.02 0.02 0.02 0.02 0.02 0.03 0.02 0.01 0.01 0.01 0.01 0.01 0.01 0.00 0.00 0.00 0.01 0.01 0.01 0.00 0.00 0.00
0.05 0.07 0.09 0.08 0.07 0.06 0.05 0.03 0.03 0.04 0.05 0.04 0.05 0.07 0.07 0.08 0.11 0.12 0.09 0.06 0.04 0.03 0.03 0.02 0.02 0.03 0.03 0.02 0.02 0.01 0.01 0.01 0.01 0.01 0.01 0.00 0.00 0.01 0.01 0.01 0.01 0.01 0.00
0.05 0.05 0.07 0.07 0.07 0.07 0.05 0.04 0.03 0.03 0.04 0.05 0.05 0.07 0.07 0.08 0.08 0.10 0.10 0.07 0.07 0.06 0.05 0.04 0.02 0.02 0.03 0.03 0.03 0.02 0.01 0.01 0.01 0.01 0.01 0.01 0.00 0.00 0.01 0.01 0.01 0.01 0.02
0.04 0.04 0.06 0.07 0.07 0.06 0.05 0.04 0.04 0.04 0.04 0.04 0.05 0.06 0.07 0.08 0.08 0.08 0.08 0.07 0.06 0.06 0.05 0.04 0.02 0.03 0.03 0.04 0.04 0.04 0.02 0.02 0.01 0.01 0.01 0.01 0.00 0.00 0.00 0.01 0.01 0.02 0.02
0.05 0.04 0.05 0.06 0.07 0.05 0.04 0.03 0.04 0.04 0.04 0.05 0.06 0.07 0.07 0.08 0.08 0.07 0.06 0.05 0.04 0.05 0.04 0.04 0.03 0.03 0.03 0.03 0.03 0.04 0.04 0.02 0.02 0.01 0.01 0.01 0.01 0.00 0.00 0.00 0.01 0.01 0.01
0.07 0.03 0.05 0.06 0.06 0.05 0.04 0.03 0.02 0.03 0.04 0.04 0.05 0.08 0.08 0.09 0.08 0.06 0.05 0.04 0.03 0.02 0.02 0.02 0.03 0.03 0.02 0.02 0.02 0.03 0.04 0.03 0.02 0.01 0.01 0.01 0.01 0.01 0.00 0.01 0.01 0.01 0.01
0.08 0.04 0.04 0.06 0.05 0.04 0.04 0.03 0.03 0.03 0.03 0.04 0.05 0.06 0.07 0.10 0.09 0.07 0.06 0.04 0.03 0.02 0.01 0.01 0.01 0.01 0.01 0.01 0.01 0.01 0.02 0.03 0.02 0.02 0.01 0.01 0.01 0.01 0.01 0.01 0.01 0.02 0.01
0.08 0.06 0.04 0.05 0.05 0.05 0.04 0.03 0.03 0.05 0.06 0.06 0.05 0.06 0.07 0.09 0.09 0.07 0.05 0.05 0.04 0.03 0.02 0.01 0.01 0.01 0.01 0.01 0.01 0.01 0.01 0.01 0.01 0.01 0.01 0.01 0.01 0.01 0.01 0.00 0.01 0.01 0.01
0.10 0.07 0.05 0.04 0.05 0.05 0.04 0.04 0.03 0.02 0.03 0.06 0.07 0.08 0.09 0.11 0.11 0.08 0.05 0.05 0.05 0.04 0.03 0.02 0.01 0.01 0.01 0.01 0.01 0.02 0.02 0.01 0.01 0.01 0.01 0.01 0.01 0.02 0.01 0.01 0.01 0.01 0.01
0.10 0.09 0.06 0.04 0.04 0.06 0.06 0.05 0.04 0.03 0.02 0.02 0.04 0.06 0.10 0.13 0.15 0.12 0.07 0.06 0.05 0.04 0.02 0.02 0.01 0.01 0.01 0.01 0.02 0.03 0.03 0.03 0.02 0.01 0.01 0.02 0.02 0.03 0.03 0.03 0.02 0.02 0.01
0.08 0.09 0.07 0.05 0.04 0.06 0.08 0.06 0.06 0.05 0.03 0.02 0.02 0.03 0.06 0.09 0.13 0.13 0.10 0.08 0.05 0.03 0.03 0.02 0.02 0.02 0.02 0.02 0.02 0.04 0.04 0.04 0.04 0.03 0.02 0.03 0.03 0.04 0.06 0.06 0.06 0.06 0.05
0.08 0.09 0.08 0.07 0.05 0.05 0.07 0.07 0.06 0.05 0.04 0.03 0.03 0.03 0.05 0.07 0.09 0.10 0.08 0.07 0.05 0.05 0.04 0.03 0.02 0.02 0.02 0.02 0.02 0.02 0.03 0.04 0.04 0.04 0.03 0.03 0.03 0.04 0.05 0.06 0.06 0.06 0.05
0.08 0.08 0.08 0.08 0.06 0.04 0.04 0.05 0.05 0.05 0.05 0.04 0.04 0.04 0.05 0.06 0.08 0.08 0.06 0.04 0.03 0.03 0.03 0.03 0.02 0.02 0.02 0.02 0.02 0.02 0.02 0.02 0.02 0.02 0.02 0.03 0.03 0.03 0.03 0.03 0.03 0.03 0.03
MSLP
1008.87 1009.15 1009.40 1009.65 1009.91 1010.17 1010.44 1010.70 1010.91 1011.08 1011.19 1011.24 1011.26 1011.26 1011.26 1011.27 1011.29 1011.32 1011.34 1011.35 1011.35 1011.35 1011.37 1011.42 1011.51 1011.67 1011.88 1012.14 1012.42 1012.70 1012.98 1013.22 1013.44 1013.63 1013.82 1014.00 1014.19 1014.40 1014.60 1014.80 1014.99 1015.15 1015.28
1008.83 1009.10 1009.36 1009.63 1009.93 1010.24 1010.56 1010.86 1011.11 1011.31 1011.43 1011.51 1011.54 1011.56 1011.59 1011.61 1011.65 1011.68 1011.69 1011.69 1011.66 1011.63 1011.60 1011.60 1011.64 1011.75 1011.91 1012.13 1012.38 1012.65 1012.93 1013.19 1013.43 1013.67 1013.90 1014.13 1014.35 1014.58 1014.81 1015.02 1015.21 1015.37 1015.51
1008.71 1008.97 1009.24 1009.55 1009.90 1010.28 1010.66 1011.02 1011.31 1011.54 1011.70 1011.79 1011.85 1011.89 1011.93 1011.97 1012.01 1012.04 1012.05 1012.02 1011.97 1011.91 1011.84 1011.79 1011.78 1011.83 1011.94 1012.11 1012.32 1012.56 1012.82 1013.09 1013.36 1013.63 1013.90 1014.17 1014.44 1014.70 1014.95 1015.18 1015.38 1015.56 1015.71
1008.56 1008.81 1009.11 1009.46 1009.88 1010.32 1010.76 1011.17 1011.51 1011.78 1011.96 1012.08 1012.16 1012.22 1012.27 1012.32 1012.36 1012.39 1012.38 1012.35 1012.28 1012.19 1012.09 1012.01 1011.96 1011.96 1012.01 1012.12 1012.27 1012.47 1012.70 1012.95 1013.23 1013.52 1013.82 1014.13 1014.44 1014.74 1015.01 1015.27 1015.49 1015.69 1015.87
1008.43 1008.69 1009.02 1009.42 1009.89 1010.39 1010.88 1011.33 1011.71 1012.00 1012.21 1012.35 1012.45 1012.52 1012.59 1012.64 1012.68 1012.70 1012.69 1012.65 1012.57 1012.47 1012.37 1012.27 1012.19 1012.16 1012.16 1012.20 1012.30 1012.43 1012.61 1012.82 1013.08 1013.37 1013.69 1014.03 1014.36 1014.69 1015.00 1015.28 1015.53 1015.76 1015.96
1008.38 1008.66 1009.02 1009.47 1009.98 1010.51 1011.03 1011.49 1011.88 1012.18 1012.40 1012.56 1012.68 1012.78 1012.85 1012.92 1012.96 1012.98 1012.97 1012.92 1012.85 1012.76 1012.66 1012.57 1012.48 1012.42 1012.39 1012.38 1012.40 1012.46 1012.57 1012.73 1012.95 1013.22 1013.53 1013.88 1014.23 1014.58 1014.91 1015.22 1015.51 1015.76 1016.00
1008.44 1008.75 1009.14 1009.61 1010.14 1010.68 1011.20 1011.65 1012.02 1012.32 1012.55 1012.72 1012.86 1012.97 1013.07 1013.14 1013.19 1013.21 1013.20 1013.15 1013.09 1013.02 1012.95 1012.88 1012.81 1012.74 1012.68 1012.63 1012.59 1012.57 1012.60 1012.69 1012.85 1013.08 1013.37 1013.70 1014.06 1014.43 1014.78 1015.11 1015.42 1015.71 1015.99
1008.61 1008.94 1009.36 1009.85 1010.38 1010.90 1011.38 1011.79 1012.13 1012.41 1012.63 1012.81 1012.97 1013.11 1013.23 1013.32 1013.37 1013.39 1013.38 1013.34 1013.30 1013.25 1013.21 1013.17 1013.13 1013.07 1013.00 1012.91 1012.81 1012.73 1012.68 1012.69 1012.77 1012.95 1013.20 1013.52 1013.87 1014.25 1014.62 1014.97 1015.31 1015.63 1015.93
1008.83 1009.20 1009.64 1010.14 1010.64 1011.12 1011.54 1011.90 1012.20 1012.45 1012.66 1012.86 1013.04 1013.21 1013.35 1013.46 1013.51 1013.53 1013.51 1013.47 1013.43 1013.41 1013.40 1013.40 1013.39 1013.35 1013.28 1013.17 1013.03 1012.88 1012.76 1012.69 1012.71 1012.83 1013.05 1013.34 1013.69 1014.06 1014.45 1014.82 1015.18 1015.52 1015.85
1009.04 1009.44 1009.91 1010.40 1010.88 1011.31 1011.68 1011.98 1012.23 1012.45 1012.66 1012.87 1013.09 1013.28 1013.45 1013.57 1013.63 1013.63 1013.60 1013.55 1013.51 1013.50 1013.51 1013.54 1013.56 1013.55 1013.48 1013.36 1013.18 1012.99 1012.81 1012.68 1012.64 1012.71 1012.89 1013.16 1013.50 1013.88 1014.27 1014.66 1015.03 1015.39 1015.74
1009.15 1009.59 1010.09 1010.59 1011.04 1011.43 1011.75 1012.01 1012.23 1012.43 1012.65 1012.88 1013.12 1013.35 1013.53 1013.66 1013.72 1013.71 1013.66 1013.59 1013.54 1013.53 1013.55 1013.60 1013.64 1013.64 1013.59 1013.46 1013.26 1013.03 1012.81 1012.63 1012.54 1012.57 1012.72 1012.97 1013.31 1013.69 1014.09 1014.49 1014.88 1015.26 1015.62
1009.09 1009.59 1010.12 1010.63 1011.09 1011.46 1011.76 1011.99 1012.19 1012.40 1012.63 1012.88 1013.15 1013.40 1013.61 1013.74 1013.79 1013.77 1013.70 1013.61 1013.55 1013.52 1013.54 1013.59 1013.64 1013.66 1013.60 1013.47 1013.27 1013.01 1012.76 1012.55 1012.43 1012.42 1012.55 1012.78 1013.11 1013.49 1013.90 1014.31 1014.72 1015.10 1015.48
1008.84 1009.39 1009.96 1010.51 1010.99 1011.37 1011.68 1011.92 1012.14 1012.36 1012.61 1012.89 1013.18 1013.45 1013.67 1013.80 1013.85 1013.82 1013.73 1013.63 1013.55 1013.51 1013.53 1013.57 1013.62 1013.63 1013.58 1013.44 1013.23 1012.96 1012.68 1012.45 1012.30 1012.27 1012.37 1012.59 1012.91 1013.29 1013.70 1014.12 1014.53 1014.92 1015.31
1008.41 1009.00 1009.62 1010.21 1010.73 1011.17 1011.51 1011.80 1012.05 1012.31 1012.59 1012.89 1013.20 1013.48 1013.71 1013.84 1013.89 1013.86 1013.77 1013.67 1013.59 1013.54 1013.55 1013.58 1013.62 1013.62 1013.56 1013.41 1013.18 1012.91 1012.61 1012.36 1012.19 1012.14 1012.21 1012.41 1012.70 1013.07 1013.47 1013.89 1014.30 1014.71 1015.10
1007.85 1008.46 1009.12 1009.76 1010.35 1010.85 1011.27 1011.63 1011.94 1012.25 1012.57 1012.89 1013.20 1013.49 1013.71 1013.85 1013.91 1013.89 1013.83 1013.74 1013.67 1013.63 1013.63 1013.66 1013.68 1013.66 1013.57 1013.41 1013.17 1012.88 1012.58 1012.31 1012.11 1012.03 1012.08 1012.24 1012.51 1012.84 1013.23 1013.63 1014.05 1014.45 1014.86
1007.25 1007.86 1008.53 1009.21 1009.87 1010.45 1010.97 1011.42 1011.82 1012.19 1012.54 1012.87 1013.19 1013.46 1013.68 1013.82 1013.90 1013.92 1013.89 1013.85 1013.81 1013.79 1013.80 1013.81 1013.81 1013.76 1013.65 1013.46 1013.20 1012.90 1012.58 1012.30 1012.08 1011.97 1011.98 1012.10 1012.32 1012.62 1012.97 1013.36 1013.76 1014.16 1014.58
1006.71 1007.27 1007.93 1008.64 1009.35 1010.03 1010.65 1011.20 1011.70 1012.13 1012.51 1012.86 1013.15 1013.41 1013.61 1013.76 1013.87 1013.92 1013.95 1013.97 1013.98 1014.00 1014.01 1014.02 1013.99 1013.91 1013.76 1013.55 1013.27 1012.95 1012.63 1012.33 1012.09 1011.95 1011.91 1011.98 1012.14 1012.39 1012.70 1013.06 1013.44 1013.85 1014.26
1006.32 1006.80 1007.41 1008.11 1008.87 1009.62 1010.35 1011.01 1011.59 1012.09 1012.50 1012.84 1013.12 1013.35 1013.54 1013.69 1013.82 1013.92 1014.01 1014.10 1014.16 1014.22 1014.25 1014.24 1014.19 1014.07 1013.88 1013.64 1013.34 1013.01 1012.68 1012.37 1012.12 1011.95 1011.86 1011.88 1011.98 1012.17 1012.43 1012.75 1013.11 1013.51 1013.93
1006.14 1006.50 1007.03 1007.70 1008.47 1009.28 1010.10 1010.85 1011.52 1012.08 1012.52 1012.86 1013.11 1013.31 1013.47 1013.61 1013.76 1013.91 1014.06 1014.21 1014.33 1014.42 1014.46 1014.44 1014.36 1014.20 1013.98 1013.71 1013.39 1013.06 1012.73 1012.42 1012.16 1011.96 1011.83 1011.79 1011.84 1011.97 1012.17 1012.45 1012.78 1013.16 1013.58
1006.19 1006.42 1006.83 1007.44 1008.20 1009.05 1009.93 1010.77 1011.51 1012.12 1012.58 1012.91 1013.13 1013.29 1013.42 1013.56 1013.72 1013.90 1014.11 1014.30 1014.47 1014.59 1014.63 1014.59 1014.48 1014.29 1014.04 1013.74 1013.42 1013.09 1012.77 1012.47 1012.20 1011.98 1011.82 1011.73 1011.71 1011.77 1011.92 1012.15 1012.45 1012.82 1013.23
1006.46 1006.54 1006.83 1007.36 1008.08 1008.95 1009.86 1010.76 1011.55 1012.20 1012.68 1012.99 1013.19 1013.32 1013.42 1013.54 1013.70 1013.90 1014.14 1014.37 1014.57 1014.70 1014.75 1014.70 1014.55 1014.33 1014.06 1013.75 1013.43 1013.11 1012.81 1012.52 1012.26 1012.03 1011.83 1011.69 1011.61 1011.60 1011.69 1011.86 1012.13 1012.47 1012.88
1006.87 1006.82 1007.00 1007.44 1008.11 1008.95 1009.88 1010.81 1011.64 1012.31 1012.80 1013.11 1013.28 1013.37 1013.45 1013.55 1013.70 1013.92 1014.17 1014.43 1014.64 1014.78 1014.82 1014.76 1014.59 1014.35 1014.07 1013.76 1013.45 1013.16 1012.88 1012.61 1012.36 1012.11 1011.88 1011.69 1011.55 1011.47 1011.49 1011.61 1011.83 1012.14 1012.53
1007.34 1007.20 1007.28 1007.63 1008.24 1009.05 1009.97 1010.90 1011.74 1012.43 1012.92 1013.22 1013.38 1013.45 1013.50 1013.58 1013.73 1013.94 1014.20 1014.47 1014.70 1014.84 1014.88 1014.80 1014.63 1014.39 1014.10 1013.81 1013.53 1013.26 1013.01 1012.76 1012.52 1012.26 1012.00 1011.75 1011.55 1011.40 1011.34 1011.39 1011.55 1011.83 1012.19
1007.78 1007.59 1007.60 1007.88 1008.42 1009.18 1010.07 1010.98 1011.82 1012.50 1012.99 1013.29 1013.44 1013.50 1013.55 1013.62 1013.76 1013.98 1014.24 1014.51 1014.74 1014.89 1014.93 1014.86 1014.69 1014.46 1014.19 1013.92 1013.67 1013.44 1013.22 1012.99 1012.75 1012.48 1012.19 1011.90 1011.62 1011.40 1011.26 1011.23 1011.33 1011.54 1011.86
1008.13 1007.93 1007.91 1008.13 1008.61 1009.31 1010.15 1011.02 1011.84 1012.52 1013.01 1013.31 1013.46 1013.53 1013.57 1013.64 1013.79 1014.00 1014.27 1014.54 1014.78 1014.93 1014.98 1014.92 1014.77 1014.56 1014.32 1014.09 1013.87 1013.68 1013.49 1013.29 1013.05 1012.78 1012.46 1012.11 1011.78 1011.48 1011.26 1011.15 1011.16 1011.31 1011.57
1008.36 1008.18 1008.14 1008.33 1008.76 1009.40 1010.18 1011.01 1011.79 1012.45 1012.94 1013.25 1013.42 1013.50 1013.56 1013.65 1013.80 1014.02 1014.28 1014.56 1014.80 1014.96 1015.02 1014.98 1014.85 1014.67 1014.47 1014.27 1014.10 1013.94 1013.78 1013.61 1013.39 1013.11 1012.77 1012.39 1012.00 1011.64 1011.35 1011.15 1011.08 1011.14 1011.32
Thickness
5735 5736 5735 5736 5736 5736 5736 5735 5735 5734 5733 5732 5731 5730 5730 5729 5729 5728 5727 5727 5726 5725 5725 5724 5723 5722 5722 5721 5719 5718 5718 5717 5717 5716 5716 5715 5715 5714 5714 5714 5713 5713 5712
5733 5733 5732 5732 5732 5732 5731 5731 5731 5730 5729 5728 5727 5727 5726 5725 5725 5724 5724 5723 5723 5722 5721 5721 5720 5719 5719 5717 5716 5715 5714 5714 5713 5713 5712 5712 5712 5711 5711 5710 5710 5709 5709
5730 5728 5727 5727 5727 5727 5727 5727 5726 5726 5725 5724 5723 5723 5722 5722 5721 5721 5720 5719 5719 5718 5718 5717 5717 5716 5715 5714 5713 5711 5711 5710 5710 5710 5709 5709 5708 5708 5707 5707 5707 5706 5705
5725 5724 5722 5722 5723 5722 5722 5722 5721 5721 5720 5720 5719 5718 5718 5718 5717 5717 5716 5716 5715 5715 5714 5714 5713 5713 5712 5711 5709 5708 5707 5707 5707 5707 5706 5706 5705 5704 5704 5703 5703 5702 5701
5719 5718 5718 5717 5718 5717 5717 5717 5716 5716 5715 5715 5715 5714 5714 5713 5713 5713 5712 5712 5712 5711 5711 5710 5709 5709 5708 5707 5706 5705 5704 5704 5704 5704 5703 5703 5702 5701 5700 5699 5699 5698 5697
5713 5713 5712 5712 5712 5713 5712 5712 5711 5711 5711 5710 5710 5709 5709 5709 5709 5709 5708 5708 5708 5707 5707 5706 5705 5704 5704 5703 5702 5701 5700 5700 5700 5700 5700 5699 5698 5697 5696 5695 5695 5694 5693
5706 5706 5706 5706 5707 5707 5707 5707 5706 5706 5705 5705 5705 5705 5704 5704 5704 5703 5703 5703 5703 5703 5702 5702 5701 5700 5699 5698 5697 5697 5696 5696 5696 5696 5696 5695 5694 5693 5692 5691 5691 5690 5689
5698 5700 5699 5700 5701 5701 5701 5701 5701 5700 5700 5700 5700 5699 5699 5699 5699 5698 5698 5698 5698 5698 5698 5697 5696 5696 5695 5694 5693 5692 5692 5692 5692 5692 5691 5690 5689 5688 5688 5687 5686 5685 5684
5691 5692 5692 5693 5694 5695 5696 5696 5695 5695 5694 5694 5694 5694 5694 5694 5694 5694 5693 5693 5693 5693 5693 5692 5691 5690 5690 5689 5688 5687 5687 5687 5687 5688 5687 5686 5685 5684 5684 5683 5682 5681 5680
5683 5685 5685 5687 5689 5690 5690 5690 5689 5689 5689 5688 5688 5688 5688 5689 5688 5689 5688 5688 5688 5687 5687 5687 5686 5685 5684 5684 5683 5683 5683 5683 5682 5682 5682 5681 5680 5680 5679 5678 5676 5675 5674
5675 5677 5678 5680 5682 5683 5684 5683 5683 5683 5682 5682 5683 5683 5682 5682 5682 5682 5683 5682 5682 5682 5681 5681 5680 5679 5679 5678 5678 5678 5678 5678 5677 5677 5676 5676 5675 5675 5674 5672 5671 5670 5669
5664 5668 5671 5673 5675 5676 5677 5677 5677 5676 5676 5676 5676 5677 5677 5677 5677 5677 5676 5676 5676 5675 5675 5675 5674 5673 5673 5672 5672 5673 5672 5672 5672 5671 5670 5670 5670 5669 5668 5667 5666 5665 5664
5655 5658 5662 5665 5667 5669 5670 5670 5670 5670 5670 5670 5670 5670 5671 5671 5671 5671 5670 5669 5669 5669 5668 5668 5667 5667 5666 5666 5667 5667 5667 5667 5666 5665 5664 5664 5663 5663 5663 5661 5660 5659 5658
5646 5649 5653 5657 5659 5661 5662 5663 5662 5663 5663 5663 5664 5664 5664 5664 5664 5664 5663 5662 5662 5662 5661 5660 5660 5660 5660 5660 5660 5660 5661 5660 5660 5659 5658 5657 5657 5656 5656 5655 5654 5653 5652
5636 5641 5645 5648 5650 5652 5653 5654 5655 5655 5655 5656 5656 5656 5657 5657 5656 5656 5656 5655 5655 5655 5654 5653 5653 5653 5653 5654 5654 5654 5654 5653 5653 5652 5651 5650 5650 5649 5649 5648 5647 5646 5645
5628 5631 5635 5639 5640 5642 5644 5645 5646 5647 5647 5648 5648 5648 5649 5649 5648 5648 5648 5648 5648 5648 5647 5646 5646 5646 5646 5646 5646 5647 5646 5646 5646 5645 5644 5643 5642 5642 5641 5641 5640 5639 5638
5619 5622 5626 5629 5631 5633 5634 5636 5637 5638 5639 5640 5640 5641 5640 5640 5640 5640 5640 5640 5639 5639 5639 5638 5638 5637 5637 5638 5638 5639 5639 5639 5638 5637 5637 5636 5635 5634 5633 5632 5632 5631 5630
5610 5613 5617 5620 5622 5623 5624 5626 5627 5629 5630 5631 5632 5632 5632 5631 5632 5631 5630 5631 5630 5630 5630 5629 5629 5627 5627 5628 5628 5629 5630 5631 5630 5629 5629 5628 5627 5626 5625 5624 5623 5622 5622
5601 5604 5606 5609 5611 5612 5614 5616 5617 5619 5620 5621 5622 5623 5623 5622 5623 5622 5621 5621 5621 5621 5620 5620 5619 5618 5617 5617 5618 5620 5621 5622 5622 5621 5620 5620 5619 5618 5616 5615 5615 5614 5613
5591 5593 5596 5598 5600 5602 5604 5606 5607 5608 5609 5610 5611 5613 5613 5613 5614 5613 5612 5612 5612 5611 5610 5610 5609 5608 5608 5608 5609 5610 5611 5613 5613 5612 5612 5611 5610 5609 5608 5607 5606 5605 5605
5581 5583 5586 5588 5589 5591 5593 5594 5595 5595 5597 5599 5601 5602 5602 5603 5603 5604 5602 5602 5602 5601 5601 5600 5599 5598 5597 5598 5597 5598 5601 5603 5603 5603 5603 5602 5601 5600 5599 5599 5598 5597 5596
5570 5572 5575 5578 5579 5580 5581 5583 5584 5585 5586 5588 5590 5591 5592 5592 5593 5594 5592 5592 5592 5591 5591 5590 5589 5587 5587 5587 5586 5586 5587 5590 5591 5593 5592 5592 5591 5591 5590 5590 5589 5588 5586
5560 5562 5566 5567 5569 5570 5570 5572 5573 5574 5575 5576 5578 5579 5581 5581 5582 5583 5582 5582 5581 5581 5580 5580 5580 5578 5577 5577 5577 5576 5575 5577 5578 5581 5582 5582 5581 5580 5580 5580 5579 5578 5576
5550 5552 5554 5557 5558 5560 5560 5562 5562 5563 5564 5566 5568 5569 5570 5571 5572 5573 5572 5570 5571 5571 5571 5570 5570 5569 5568 5566 5566 5567 5567 5566 5564 5566 5569 5570 5570 5570 5570 5569 5569 5568 5566
5539 5541 5543 5546 5549 5550 5550 5551 5552 5552 5554 5556 5557 5558 5559 5560 5561 5562 5562 5561 5560 5561 5560 5559 5559 5558 5558 5557 5557 5556 5556 5556 5556 5553 5555 5556 5557 5558 5558 5558 5558 5557 5556
5530 5531 5533 5536 5539 5540 5540 5540 5541 5542 5543 5545 5547 5547 5548 5550 5550 5552 5552 5551 5551 5550 5550 5550 5549 5548 5548 5547 5547 5547 5546 5545 5545 5543 5542 5542 5543 5546 5546 5547 5546 5546 5545